Weather History for Lufkin, TX

Change the Weather History Date:

Thursday, December 27, 2012

  Actual Average Record
Temperature  
Mean Temperature 39 °F 49 °F  
Max Temperature 50 °F 59 °F 80 °F (1971)
Min Temperature 27 °F 38 °F 23 °F (1977)
Degree Days  
Heating Degree Days 26 17  
Month to date heating degree days 249 404  
Since 1 July heating degree days 532 711  
Cooling Degree Days 0 0  
Month to date cooling degree days 47 4  
Year to date cooling degree days 3218 2587  
Moisture  
Dew Point 35 °F    
Average Humidity 74    
Maximum Humidity 92    
Minimum Humidity 56    
Precipitation  
Precipitation 0.06 in 0.13 in 1.82 in (1942)
Month to date precipitation 3.39 3.92  
Year to date precipitation 42.11 48.43  
Snow  
Snow 0.00 in - - ()
Month to date snowfall 0.0  
Since 1 July snowfall 0.0  
Snow Depth 0.00 in    
Sea Level Pressure  
Sea Level Pressure 30.03 in    
Wind  
Wind Speed 6 mph (East)    
Max Wind Speed 13 mph    
Max Gust Speed 16 mph    
Visibility 7 miles    
Events Rain    
T = Trace of Precipitation, MM = Missing Value Source: NWS Daily Summary

Daily Weather History Graph

Daily Weather History Graph

Search for Another Location

Airport:

Trip Planner

Search our weather history database for the weather conditions in past years. The results will help you decide how hot, cold, wet, or windy it might be!

Date:

Astronomy

Dec. 27, 2012 Rise Set
Actual Time 7:16 AM CST 5:24 PM CST
Civil Twilight 6:49 AM CST 5:51 PM CST
Nautical Twilight 6:19 AM CST 6:21 PM CST
Astronomical Twilight 5:49 AM CST 6:51 PM CST
Moon 5:06 PM CST (12/27) 6:29 AM CST (12/27)
Length of Visible Light 11h 01m
Length of Day
10h 07m
Full, 100% of the Moon is Illuminated
Dec 27
Full
Dec 28
Full
Jan 4
Last Quarter
Jan 11
New
Jan 18
First Quarter

Hourly Weather History & Observations

Time (CST) Temp. Windchill Dew Point Humidity Pressure Visibility Wind Dir Wind Speed Gust Speed Precip Events Conditions
12:53 AM 30.0 °F 26.5 °F 25.0 °F 82% 30.15 in 10.0 mi NNE 3.5 mph - N/A   Clear
1:53 AM 30.0 °F - 25.0 °F 82% 30.14 in 9.0 mi Calm Calm - N/A   Clear
2:53 AM 28.9 °F - 24.1 °F 82% 30.14 in 8.0 mi Calm Calm - N/A   Clear
3:53 AM 28.9 °F - 24.1 °F 82% 30.13 in 7.0 mi Calm Calm - N/A   Clear
4:53 AM 28.0 °F - 24.1 °F 85% 30.12 in 5.0 mi Calm Calm - N/A   Clear
5:53 AM 28.0 °F - 24.1 °F 85% 30.13 in 6.0 mi Calm Calm - N/A   Clear
6:53 AM 28.4 °F 22.2 °F 24.8 °F 86% 30.13 in 5.0 mi East 5.8 mph - N/A   Clear
7:39 AM 30.2 °F 24.3 °F 26.6 °F 86% 30.12 in 3.0 mi East 5.8 mph - N/A   Mostly Cloudy
7:53 AM 30.9 °F 24.3 °F 27.0 °F 85% 30.12 in 4.0 mi ENE 6.9 mph - N/A   Mostly Cloudy
8:00 AM 30.2 °F 24.3 °F 28.4 °F 93% 30.12 in 5.0 mi East 5.8 mph - N/A   Scattered Clouds
8:53 AM 36.0 °F 28.5 °F 30.0 °F 79% 30.09 in 10.0 mi East 10.4 mph - N/A   Clear
9:15 AM 37.4 °F 29.8 °F 30.2 °F 75% 30.10 in 10.0 mi ESE 11.5 mph - N/A   Partly Cloudy
9:53 AM 39.9 °F 33.4 °F 32.0 °F 73% 30.10 in 10.0 mi ESE 10.4 mph - N/A   Clear
10:53 AM 44.1 °F - 32.0 °F 63% 30.11 in 10.0 mi Calm Calm - N/A   Scattered Clouds
11:53 AM 48.0 °F - 34.0 °F 58% 30.07 in 10.0 mi East 5.8 mph - N/A   Clear
12:53 PM 48.9 °F - 36.0 °F 61% 30.04 in 10.0 mi East 8.1 mph - N/A   Overcast
1:53 PM 48.9 °F - 36.0 °F 61% 30.01 in 10.0 mi ENE 8.1 mph - N/A   Overcast
2:49 PM 48.2 °F - 35.6 °F 62% 29.99 in 10.0 mi East 8.1 mph - N/A   Overcast
2:53 PM 48.9 °F - 36.0 °F 61% 29.99 in 10.0 mi East 9.2 mph - N/A   Overcast
4:53 PM 46.9 °F - 39.9 °F 77% 29.97 in 7.0 mi ENE 4.6 mph - 0.00 in Rain Light Rain
5:06 PM 46.4 °F 43.5 °F 41.0 °F 81% 29.96 in 2.5 mi East 5.8 mph - 0.01 in Rain Light Rain
5:14 PM 46.4 °F 45.2 °F 41.0 °F 81% 29.97 in 4.0 mi ENE 3.5 mph - 0.01 in Rain Light Rain
5:53 PM 45.0 °F 41.2 °F 41.0 °F 86% 29.96 in 4.0 mi East 6.9 mph - 0.03 in Rain Light Rain
6:53 PM 45.0 °F 40.1 °F 41.0 °F 86% 29.95 in 5.0 mi East 9.2 mph - 0.01 in Rain Light Rain
7:21 PM 44.6 °F 40.7 °F 41.0 °F 87% 29.95 in 4.0 mi East 6.9 mph - 0.01 in Rain Light Rain
7:53 PM 45.0 °F 41.2 °F 41.0 °F 86% 29.94 in 9.0 mi East 6.9 mph - 0.01 in   Overcast
8:34 PM 44.6 °F 40.2 °F 42.8 °F 93% 29.94 in 8.0 mi East 8.1 mph - 0.00 in Rain Light Rain
8:53 PM 45.0 °F 41.2 °F 42.1 °F 90% 29.94 in 9.0 mi East 6.9 mph - 0.00 in   Overcast
9:44 PM 46.4 °F 42.9 °F 42.8 °F 87% 29.92 in 10.0 mi East 6.9 mph - 0.00 in   Overcast
9:53 PM 46.4 °F 43.5 °F 42.8 °F 87% 29.92 in 9.0 mi ESE 5.8 mph - N/A   Overcast
10:53 PM 46.9 °F - 43.0 °F 86% 29.91 in 6.0 mi ESE 8.1 mph - 0.01 in Rain Light Rain
11:05 PM 46.4 °F 42.4 °F 42.8 °F 87% 29.90 in 8.0 mi SE 8.1 mph - 0.00 in   Overcast
11:53 PM 46.9 °F - 43.0 °F 86% 29.87 in 6.0 mi ESE 9.2 mph - 0.00 in   Overcast